This demonstration page uses our WeatherBlox Daily Observations layout. Learn more.

Left ArrowRight Arrow

38.83388, -104.82136

Hourly Observations for April 24, 2017

Temp ( °F °C ) Dew Point ( °F °C ) Humidity (%) Winds ( mph kmh ) Pressure ( in mb ) Visibility ( mi km ) Precip ( " mm )
8:58 am 08:58 Sunny 57 14.1 26 -3.3 30 30 ESE 9 15 29.38 995 10 16 0.00 0.00
9:58 am 09:58 Mostly Sunny 60 15.5 26 -3.5 27 27 ENE 5 7 29.35 994 10 16 0.00 0.00
10:58 am 10:58 Partly Cloudy 63 17 20 -6.8 19 19 E 5 7 29.29 992 10 16 0.00 0.00
11:19 am 11:19 Mostly Cloudy 64 18 19 -7 18 18 SE 24 39 29.26 991 10 16 0.00 0.00
11:21 am 11:21 Mostly Cloudy 64 18 19 -7 18 18 S 14 22 29.26 991 10 16 0.00 0.00
11:23 am 11:23 Partly Cloudy 63 17 19 -7 19 19 SW 16 26 29.29 992 10 16 0.00 0.00
11:58 am 11:58 Mostly Cloudy 64 17.7 19 -7.2 18 18 N 8 13 29.26 991 10 16 0.00 0.00
12:19 pm 12:19 Mostly Cloudy 66 19 16 -9 14 14 SE 13 20 29.23 990 10 16 0.00 0.00
12:58 pm 12:58 Partly Cloudy 65 18.5 15 -9.3 14 14 SSE 7 11 29.21 989 10 16 0.00 0.00
1:28 pm 13:28 Sunny 66 19 16 -9 14 14 SE 16 26 29.21 989 10 16 0.00 0.00
1:31 pm 13:31 Sunny 66 19 18 -8 15 15 S 21 33 29.21 989 10 16 0.00 0.00
1:36 pm 13:36 Sunny 66 19 18 -8 15 15 SE 20 31 29.21 989 10 16 0.00 0.00
1:40 pm 13:40 Sunny 66 19 18 -8 15 15 SSE 24 39 29.18 988 10 16 0.00 0.00
1:49 pm 13:49 Sunny 66 19 21 -6 18 18 ESE 16 26 29.21 989 10 16 0.00 0.00
1:58 pm 13:58 Sunny 67 19.3 19 -7 16 16 ESE 14 22 29.15 987 10 16 0.00 0.00
1:59 pm 13:59 Sunny 66 19 19 -7 17 17 SE 16 26 29.18 988 10 16 0.00 0.00
2:10 pm 14:10 Mostly Sunny 66 19 19 -7 17 17 SE 15 24 29.21 989 10 16 0.00 0.00
2:58 pm 14:58 Mostly Cloudy 63 17.4 19 -7.3 18 18 SSE 10 17 29.23 990 10 16 0.00 0.00
3:58 pm 15:58 Mostly Cloudy 63 17.1 22 -5.8 20 20 SSE 15 24 29.21 989 10 16 0.00 0.00
4:58 pm 16:58 Mostly Cloudy 62 16.6 22 -5.8 21 21 SSE 8 13 29.18 988 10 16 0.00 0.00
5:58 pm 17:58 Sunny 62 16.4 20 -6.5 20 20 ESE 6 9 29.18 988 10 16 0.00 0.00
6:58 pm 18:58 Mostly Cloudy 60 15.4 22 -5.6 23 23 N 12 19 29.21 989 10 16 0.00 0.00
7:58 pm 19:58 Mostly Cloudy 58 14.3 23 -5.2 26 26 Calm 29.26 991 10 16 0.00 0.00
8:58 pm 20:58 Mostly Cloudy 56 13.2 24 -4.7 29 29 WNW 7 11 29.11 986 10 16 0.00 0.00
9:58 pm 21:58 Mostly Cloudy 55 12.6 25 -4 31 31 S 5 7 29.10 986 10 16 0.00 0.00
10:58 pm 22:58 Mostly Cloudy 52 11.1 34 0.9 50 50 SSE 3 6 29.08 985 10 16 0.00 0.00
11:58 pm 23:58 Mostly Clear 49 9.6 32 0.2 52 52 NW 3 6 29.05 984 10 16 0.00 0.00

Powered by AerisWeather